SM4IVE-5 Weather Reports


time (UTC)temp
F
wind
direction
speed
knots
gust
knots
rain 1hr
in
rain 24hr
in
rain mn
in
humidity
%
barometer
mb
20260508023330 39 134 1.7 4.3 0.00 0.00 0.00 62 1022.8
20260508022826 39 153 0.9 2.6 0.00 0.00 0.00 62 1022.8
20260508022347 39 100 0.9 2.6 0.00 0.00 0.00 62 1022.8
20260508021827 39 190 0.9 5.2 0.00 0.00 0.00 60 1022.7
20260508021327 40 126 0.9 5.2 0.00 0.00 0.00 60 1022.7
20260508020857 40 179 0.9 4.3 0.00 0.00 0.00 60 1022.6
20260508020324 40 182 2.6 5.2 0.00 0.00 0.00 59 1022.6
20260508015825 40 202 1.7 7.8 0.00 0.00 0.00 59 1022.6
20260508015346 40 239 3.5 7.8 0.00 0.00 0.00 59 1022.5
20260508014825 40 198 2.6 5.2 0.00 0.00 0.00 59 1022.4
20260508014326 40 184 0.9 7.0 0.00 0.00 0.00 60 1022.4
20260508013835 40 101 1.7 7.0 0.00 0.00 0.00 60 1022.4
20260508013324 40 146 0.9 7.0 0.00 0.00 0.00 60 1022.4
20260508012845 40 178 0.9 3.5 0.00 0.00 0.00 60 1022.3
20260508012325 40 171 1.7 5.2 0.00 0.00 0.00 60 1022.3
20260508011825 40 149 0.9 4.3 0.00 0.00 0.00 60 1022.2
20260508011326 40 170 0.9 4.3 0.00 0.00 0.00 60 1022.1
20260508010826 40 171 0.9 4.3 0.00 0.00 0.00 61 1022.1
20260508010326 41 138 1.7 4.3 0.00 0.00 0.00 60 1022.0
20260508005827 41 192 1.7 6.1 0.00 0.00 0.00 59 1021.9
20260508005336 41 182 0.9 6.1 0.00 0.00 0.00 59 1021.9
20260508004826 41 146 2.6 6.1 0.00 0.00 0.00 59 1021.9
20260508004326 41 138 2.6 6.1 0.00 0.00 0.00 58 1021.8
20260508003826 41 194 1.7 4.3 0.00 0.00 0.00 58 1021.8
20260508003334 41 169 1.7 6.1 0.00 0.00 0.00 58 1021.7
20260508002842 41 172 3.5 6.1 0.00 0.00 0.00 58 1021.7
20260508002329 41 129 3.5 6.1 0.00 0.00 0.00 59 1021.6
20260508001849 41 176 2.6 5.2 0.00 0.00 0.00 59 1021.6
20260508001330 41 169 1.7 5.2 0.00 0.00 0.00 59 1021.5
20260508000850 41 167 2.6 5.2 0.00 0.00 0.00 59 1021.5
20260508000350 41 142 0.9 7.8 0.00 0.00 0.00 59 1021.4
20260507235829 41 84 1.7 7.8 0.00 0.00 0.00 60 1021.4
20260507235330 42 146 1.7 4.3 0.00 0.00 0.00 58 1021.4
20260507234830 42 155 1.7 2.6 0.00 0.00 0.00 58 1021.3
20260507234331 42 184 1.7 7.0 0.00 0.00 0.00 58 1021.2
20260507233831 42 160 2.6 7.0 0.00 0.00 0.00 57 1021.1
20260507233351 42 153 2.6 5.2 0.00 0.00 0.00 57 1021.1
20260507232830 42 199 3.5 6.1 0.00 0.00 0.00 57 1021.0
20260507232330 42 176 2.6 7.0 0.00 0.00 0.00 57 1020.9
20260507231831 42 184 2.6 7.0 0.00 0.00 0.00 57 1020.9
20260507231340 42 167 2.6 5.2 0.00 0.00 0.00 56 1021.0
20260507230829 42 145 2.6 7.0 0.00 0.00 0.00 56 1020.9
20260507230350 43 140 2.6 6.1 0.00 0.00 0.00 56 1020.9
20260507225829 43 167 3.5 7.0 0.00 0.00 0.00 56 1020.8
20260507225329 43 180 2.6 7.8 0.00 0.00 0.00 56 1020.8
20260507224830 43 148 3.5 7.8 0.00 0.00 0.00 55 1020.8
20260507224330 43 187 3.5 5.2 0.00 0.00 0.00 56 1020.7
20260507223830 43 157 3.5 7.0 0.00 0.00 0.00 55 1020.7
20260507223351 43 188 2.6 7.0 0.00 0.00 0.00 55 1020.7
20260507222830 43 146 2.6 5.2 0.00 0.00 0.00 55 1020.6
20260507222351 43 186 2.6 9.6 0.00 0.00 0.00 55 1020.6
20260507221826 43 152 2.6 9.6 0.00 0.00 0.00 54 1020.6
20260507221326 44 151 2.6 7.0 0.00 0.00 0.00 54 1020.5
20260507220827 43 166 2.6 6.1 0.00 0.00 0.00 54 1020.5
20260507220327 43 165 1.7 7.0 0.00 0.00 0.00 54 1020.4
20260507215827 43 166 2.6 7.0 0.00 0.00 0.00 55 1020.4
20260507215348 44 163 1.7 5.2 0.00 0.00 0.00 54 1020.4
20260507214847 43 156 1.7 4.3 0.00 0.00 0.00 54 1020.4
20260507214335 43 169 1.7 3.5 0.00 0.00 0.00 54 1020.3
20260507213824 43 171 1.7 3.5 0.00 0.00 0.00 54 1020.3
20260507213325 43 172 1.7 3.5 0.00 0.00 0.00 55 1020.3
20260507212833 43 134 1.7 3.5 0.00 0.00 0.00 56 1020.2
20260507212402 44 180 1.7 3.5 0.00 0.00 0.00 58 1020.1
20260507211850 44 154 1.7 5.2 0.00 0.00 0.00 58 1020.0
20260507211356 44 115 0.9 5.2 0.00 0.00 0.00 56 1019.9
20260507210845 44 146 1.7 7.0 0.00 0.00 0.00 57 1019.9
20260507210330 44 157 1.7 7.0 0.00 0.00 0.00 55 1019.8
20260507205857 44 160 0.9 5.2 0.00 0.00 0.00 55 1019.7
20260507205324 43 154 0.9 4.3 0.00 0.00 0.00 58 1019.6
20260507204852 43 129 1.7 3.5 0.00 0.00 0.00 58 1019.6
20260507204351 43 142 0.9 2.6 0.00 0.00 0.00 64 1019.6
20260507203839 43 142 1.7 2.6 0.00 0.00 0.00 64 1019.6
20260507203329 44 125 0.9 2.6 0.00 0.00 0.00 64 1019.5
20260507202850 44 125 1.7 2.6 0.00 0.00 0.00 61 1019.6
20260507202330 45 125 1.7 2.6 0.00 0.00 0.00 62 1019.5
20260507201830 47 125 0.9 1.7 0.00 0.00 0.00 59 1019.5
20260507201331 47 125 0.9 3.5 0.00 0.00 0.00 55 1019.4
20260507200831 48 121 1.7 3.5 0.00 0.00 0.00 52 1019.3
20260507200400 48 169 1.7 4.3 0.00 0.00 0.00 51 1019.1
20260507195828 49 150 1.7 4.3 0.00 0.00 0.00 50 1019.0
20260507195329 49 188 0.9 4.3 0.00 0.00 0.00 48 1019.0
20260507194829 49 193 1.7 4.3 0.00 0.00 0.00 47 1018.9
20260507194350 49 188 1.7 5.2 0.00 0.00 0.00 49 1018.9
20260507193830 50 206 1.7 6.1 0.00 0.00 0.00 49 1018.8
20260507193331 50 171 1.7 3.5 0.00 0.00 0.00 48 1018.7
20260507192831 50 155 2.6 7.0 0.00 0.00 0.00 47 1018.6
20260507192352 51 144 1.7 4.3 0.00 0.00 0.00 47 1018.5
20260507191839 51 183 1.7 4.3 0.00 0.00 0.00 47 1018.4
20260507191328 52 186 0.9 4.3 0.00 0.00 0.00 47 1018.3
20260507190828 53 186 1.7 4.3 0.00 0.00 0.00 44 1018.3
20260507190328 53 199 1.7 5.2 0.00 0.00 0.00 42 1018.1
20260507185829 53 192 1.7 6.1 0.00 0.00 0.00 42 1018.1
20260507185329 54 197 1.7 7.8 0.00 0.00 0.00 41 1018.0
20260507184830 54 212 3.5 7.8 0.00 0.00 0.00 41 1017.9
20260507184330 54 165 3.5 7.8 0.00 0.00 0.00 42 1017.9
20260507183830 55 183 2.6 7.0 0.00 0.00 0.00 42 1017.8
20260507183330 55 218 2.6 5.2 0.00 0.00 0.00 41 1017.7
20260507182826 56 175 2.6 6.1 0.00 0.00 0.00 40 1017.7
20260507182353 56 159 2.6 6.1 0.00 0.00 0.00 41 1017.6
20260507181840 56 174 2.6 6.1 0.00 0.00 0.00 41 1017.5
20260507181325 57 144 2.6 5.2 0.00 0.00 0.00 42 1017.5
20260507180825 57 184 3.5 6.1 0.00 0.00 0.00 43 1017.4
20260507180334 57 171 0.9 1.7 0.00 0.00 0.00 40 1017.3
20260507175824 58 161 0.0 2.6 0.00 0.00 0.00 39 1017.3
20260507175331 58 170 1.7 3.5 0.00 0.00 0.00 40 1017.2
20260507174857 58 170 1.7 3.5 0.00 0.00 0.00 39 1017.2
20260507174403 58 163 0.9 4.3 0.00 0.00 0.00 40 1017.1
20260507173829 58 157 1.7 3.5 0.00 0.00 0.00 39 1017.1
20260507173336 57 157 1.7 3.5 0.00 0.00 0.00 38 1017.1
20260507172826 57 130 1.7 2.6 0.00 0.00 0.00 42 1017.0
20260507172326 57 130 0.9 2.6 0.00 0.00 0.00 41 1017.0
20260507171846 57 129 0.9 2.6 0.00 0.00 0.00 41 1016.9
20260507171326 57 103 0.9 1.7 0.00 0.00 0.00 44 1016.8
20260507170826 57 103 0.9 2.6 0.00 0.00 0.00 43 1016.8
20260507170326 58 103 0.9 5.2 0.00 0.00 0.00 42 1016.8
20260507165835 58 103 2.6 5.2 0.00 0.00 0.00 40 1016.7
20260507165324 58 113 0.9 6.1 0.00 0.00 0.00 42 1016.7
20260507164826 58 83 2.6 6.1 0.00 0.00 0.00 40 1016.7
20260507164325 59 118 3.5 7.0 0.00 0.00 0.00 39 1016.6
20260507163826 59 102 1.7 7.8 0.00 0.00 0.00 41 1016.6
20260507163327 59 123 3.5 7.8 0.00 0.00 0.00 40 1016.5
20260507162827 59 109 4.3 7.8 0.00 0.00 0.00 40 1016.4
20260507162327 59 145 3.5 7.8 0.00 0.00 0.00 39 1016.5
20260507161828 59 115 3.5 8.7 0.00 0.00 0.00 40 1016.5
20260507161330 59 75 2.6 7.0 0.00 0.00 0.00 41 1016.4
20260507160830 59 145 2.6 8.7 0.00 0.00 0.00 40 1016.4
20260507160330 59 156 3.5 7.0 0.00 0.00 0.00 41 1016.4
20260507155850 59 87 3.5 7.0 0.00 0.00 0.00 43 1016.4
20260507155329 58 120 0.9 4.3 0.00 0.00 0.00 40 1016.4
20260507154830 58 153 0.0 4.3 0.00 0.00 0.00 41 1016.3
20260507154330 58 132 0.9 6.1 0.00 0.00 0.00 42 1016.3
20260507153831 59 132 1.7 6.1 0.00 0.00 0.00 43 1016.3
20260507153333 59 182 1.7 7.0 0.00 0.00 0.00 40 1016.3
20260507152900 58 104 1.7 5.2 0.00 0.00 0.00 42 1016.3
20260507152328 58 94 2.6 3.5 0.00 0.00 0.00 46 1016.3
20260507151849 58 94 0.9 5.2 0.00 0.00 0.00 44 1016.3
20260507151328 58 94 1.7 5.2 0.00 0.00 0.00 47 1016.3
20260507150828 58 56 2.6 4.3 0.00 0.00 0.00 45 1016.3
20260507150328 59 53 2.6 6.1 0.00 0.00 0.00 42 1016.2
20260507145856 59 79 2.6 6.1 0.00 0.00 0.00 43 1016.2
20260507145324 59 105 3.5 6.1 0.00 0.00 0.00 41 1016.2
20260507144852 60 88 3.5 7.8 0.00 0.00 0.00 41 1016.2
20260507144351 60 106 4.3 8.7 0.00 0.00 0.00 42 1016.1
20260507143830 60 133 5.2 8.7 0.00 0.00 0.00 42 1016.1
20260507143332 60 96 2.6 8.7 0.00 0.00 0.00 43 1016.1
20260507142839 60 65 4.3 8.7 0.00 0.00 0.00 42 1016.1
20260507142328 60 96 5.2 8.7 0.00 0.00 0.00 43 1016.0
20260507141829 59 156 2.6 7.8 0.00 0.00 0.00 46 1016.0
20260507141349 59 126 4.3 7.8 0.00 0.00 0.00 44 1016.0
20260507140849 59 111 4.3 7.8 0.00 0.00 0.00 44 1016.0
20260507140328 59 123 3.5 8.7 0.00 0.00 0.00 44 1015.9
20260507135828 60 136 4.3 8.7 0.00 0.00 0.00 42 1015.9
20260507135335 60 60 0.9 7.0 0.00 0.00 0.00 44 1015.9
20260507134824 60 84 2.6 8.7 0.00 0.00 0.00 43 1015.8
20260507134330 60 121 4.3 9.6 0.00 0.00 0.00 43 1015.9
20260507133846 60 95 3.5 9.6 0.00 0.00 0.00 42 1015.8
20260507133325 59 51 2.6 5.2 0.00 0.00 0.00 45 1015.8
20260507132824 59 76 1.7 7.0 0.00 0.00 0.00 44 1015.8
20260507132325 59 47 2.6 7.0 0.00 0.00 0.00 41 1015.8
20260507131825 60 360 2.6 5.2 0.00 0.00 0.00 40 1015.8
20260507131326 61 16 0.9 6.1 0.00 0.00 0.00 41 1015.8
20260507130826 61 43 3.5 6.1 0.00 0.00 0.00 39 1015.8
20260507130327 62 11 1.7 7.0 0.00 0.00 0.00 39 1015.8
20260507125827 62 18 2.6 11.3 0.00 0.00 0.00 40 1015.8
20260507125327 62 24 4.3 11.3 0.00 0.00 0.00 41 1015.6
20260507124828 62 105 1.7 7.0 0.00 0.00 0.00 40 1015.7
20260507124328 62 355 2.6 4.3 0.00 0.00 0.00 39 1015.7
20260507123828 61 41 0.9 6.1 0.00 0.00 0.00 40 1015.7
20260507123349 61 40 0.9 5.2 0.00 0.00 0.00 41 1015.7
20260507122830 61 355 1.7 7.0 0.00 0.00 0.00 41 1015.6
20260507122331 61 350 4.3 7.0 0.00 0.00 0.00 42 1015.6
20260507121852 61 87 0.9 6.1 0.00 0.00 0.00 43 1015.6
20260507121331 61 137 2.6 7.0 0.00 0.00 0.00 45 1015.6
20260507120831 60 122 3.5 7.0 0.00 0.00 0.00 44 1015.6
20260507120352 60 54 2.6 7.8 0.00 0.00 0.00 43 1015.6
20260507115852 61 13 3.5 7.8 0.00 0.00 0.00 41 1015.7
20260507115332 61 45 4.3 7.0 0.00 0.00 0.00 43 1015.6
20260507114832 61 19 3.5 7.8 0.00 0.00 0.00 42 1015.6
20260507114331 61 5 2.6 7.8 0.00 0.00 0.00 44 1015.6
20260507113831 61 360 1.7 10.4 0.00 0.00 0.00 43 1015.6
20260507113331 62 330 4.3 10.4 0.00 0.00 0.00 42 1015.6
20260507112840 62 69 1.7 7.8 0.00 0.00 0.00 41 1015.6
20260507112328 62 163 2.6 5.2 0.00 0.00 0.00 43 1015.7
20260507111828 61 307 2.6 7.0 0.00 0.00 0.00 40 1015.7
20260507111349 61 355 1.7 7.8 0.00 0.00 0.00 40 1015.6
20260507110829 62 117 5.2 7.8 0.00 0.00 0.00 42 1015.6
20260507110328 62 55 2.6 7.0 0.00 0.00 0.00 40 1015.6
20260507105829 62 349 3.5 7.0 0.00 0.00 0.00 41 1015.6
20260507105346 62 323 2.6 4.3 0.00 0.00 0.00 43 1015.5
20260507104833 61 104 0.9 4.3 0.00 0.00 0.00 45 1015.6
20260507104340 61 78 1.7 4.3 0.00 0.00 0.00 45 1015.5
20260507103829 60 360 1.7 5.2 0.00 0.00 0.00 44 1015.5
20260507103336 60 65 3.5 5.2 0.00 0.00 0.00 45 1015.4
20260507102824 60 336 1.7 4.3 0.00 0.00 0.00 49 1015.4
20260507102345 60 297 0.9 4.3 0.00 0.00 0.00 47 1015.4
20260507101824 60 355 1.7 4.3 0.00 0.00 0.00 47 1015.5
20260507101325 59 34 0.9 7.0 0.00 0.00 0.00 48 1015.4
20260507100826 59 360 2.6 7.0 0.00 0.00 0.00 48 1015.4
20260507100327 59 37 2.6 7.0 0.00 0.00 0.00 48 1015.3
20260507095827 58 57 2.6 7.0 0.00 0.00 0.00 49 1015.3
20260507095348 58 42 2.6 5.2 0.00 0.00 0.00 51 1015.2
20260507094827 58 323 2.6 7.8 0.00 0.00 0.00 50 1015.3
20260507094328 58 355 3.5 7.8 0.00 0.00 0.00 52 1015.2
20260507093849 58 350 2.6 7.0 0.00 0.00 0.00 49 1015.2
20260507093349 59 360 2.6 8.7 0.00 0.00 0.00 49 1015.2
20260507092829 59 345 2.6 8.7 0.00 0.00 0.00 49 1015.2
20260507092330 60 337 1.7 5.2 0.00 0.00 0.00 50 1015.2
20260507091850 59 86 1.7 5.2 0.00 0.00 0.00 48 1015.2
20260507091330 59 360 2.6 7.0 0.00 0.00 0.00 48 1015.1
20260507090831 59 53 2.6 7.0 0.00 0.00 0.00 47 1015.1
20260507090331 59 350 0.9 5.2 0.00 0.00 0.00 48 1015.1
20260507085840 58 169 2.6 5.2 0.00 0.00 0.00 50 1015.1
20260507085329 57 144 2.6 4.3 0.00 0.00 0.00 51 1015.2
20260507084830 56 114 2.6 5.2 0.00 0.00 0.00 54 1015.2
20260507084351 55 161 0.9 4.3 0.00 0.00 0.00 55 1015.2
20260507083830 55 313 2.6 4.3 0.00 0.00 0.00 52 1015.2
20260507083331 55 53 1.7 5.2 0.00 0.00 0.00 51 1015.3
20260507082831 54 52 2.6 5.2 0.00 0.00 0.00 53 1015.2
20260507082332 54 360 1.7 3.5 0.00 0.00 0.00 53 1015.2
20260507081832 54 355 1.7 3.5 0.00 0.00 0.00 55 1015.2
20260507081340 54 349 0.9 2.6 0.00 0.00 0.00 54 1015.2
20260507080828 53 346 0.0 2.6 0.00 0.00 0.00 58 1015.2
20260507080330 52 345 0.9 2.6 0.00 0.00 0.00 56 1015.2
20260507075829 52 292 1.7 3.5 0.00 0.00 0.00 55 1015.2
20260507075331 52 292 1.7 3.5 0.00 0.00 0.00 55 1015.2
20260507074830 51 249 0.9 2.6 0.00 0.00 0.00 57 1015.2
20260507074351 51 138 0.9 2.6 0.00 0.00 0.00 57 1015.2
20260507073831 49 138 0.9 6.1 0.00 0.00 0.00 63 1015.2
20260507073339 48 136 2.6 6.1 0.00 0.00 0.00 65 1015.1
20260507072828 47 123 2.6 6.1 0.00 0.00 0.00 67 1015.1
20260507072329 46 150 1.7 6.1 0.00 0.00 0.00 70 1015.1
20260507071830 44 168 1.7 4.3 0.00 0.00 0.00 72 1015.1
20260507071351 43 168 1.7 2.6 0.00 0.00 0.00 75 1015.2
20260507070837 43 287 0.0 1.7 0.00 0.00 0.00 78 1015.1
20260507070325 43 288 0.0 0.0 0.00 0.00 0.00 79 1015.2
20260507065833 43 288 0.0 0.9 0.00 0.00 0.00 80 1015.1
20260507065339 43 288 0.0 0.9 0.00 0.00 0.00 81 1015.1
20260507064828 42 288 0.0 0.9 0.00 0.00 0.00 81 1015.0
20260507064329 42 288 0.9 0.9 0.00 0.00 0.00 84 1015.0
20260507063830 42 288 0.0 1.7 0.00 0.00 0.00 83 1015.0
20260507063351 42 288 0.9 1.7 0.00 0.00 0.00 82 1014.9
20260507062831 42 288 0.9 1.7 0.00 0.00 0.00 82 1015.0
20260507062331 42 288 0.0 0.0 0.00 0.00 0.00 84 1014.9
20260507061831 42 288 0.0 0.0 0.00 0.00 0.00 83 1014.9
20260507061331 42 288 0.0 0.0 0.00 0.00 0.00 82 1014.8
20260507060832 42 288 0.0 0.0 0.00 0.00 0.00 82 1014.8
20260507060400 42 288 0.0 0.0 0.00 0.00 0.00 81 1014.7
20260507055829 42 288 0.0 0.0 0.00 0.00 0.00 79 1014.7
20260507055329 43 288 0.0 0.9 0.00 0.00 0.00 78 1014.7
20260507054829 43 288 0.0 0.9 0.00 0.00 0.00 78 1014.7
20260507054346 43 288 0.9 1.7 0.00 0.00 0.00 76 1014.7
20260507053826 43 288 0.9 1.7 0.00 0.00 0.00 75 1014.6
20260507053326 43 288 0.9 1.7 0.00 0.00 0.00 74 1014.5
20260507052827 43 286 0.0 1.7 0.00 0.00 0.00 74 1014.5
20260507052347 43 286 1.7 1.7 0.00 0.00 0.00 73 1014.4
20260507051848 43 286 0.0 1.7 0.00 0.00 0.00 71 1014.4
20260507051329 42 286 0.9 1.7 0.00 0.00 0.00 72 1014.4
20260507050849 42 286 0.0 1.7 0.00 0.00 0.00 74 1014.3
20260507050329 41 287 0.9 1.7 0.00 0.00 0.00 76 1014.3
20260507045835 41 287 0.0 0.0 0.00 0.00 0.00 78 1014.2
20260507045325 40 287 0.0 0.9 0.00 0.00 0.00 79 1014.3
20260507044826 40 287 0.0 0.9 0.00 0.00 0.00 82 1014.3
20260507044326 40 287 0.0 1.7 0.00 0.00 0.00 80 1014.3
20260507043826 39 287 0.9 1.7 0.00 0.00 0.00 79 1014.2
20260507043327 39 287 0.0 1.7 0.00 0.00 0.00 78 1014.2
20260507042835 39 287 0.9 1.7 0.00 0.00 0.00 80 1014.2
20260507042325 39 287 0.0 0.9 0.00 0.00 0.00 80 1014.1
20260507041825 38 287 0.0 1.7 0.00 0.00 0.00 82 1014.0
20260507041331 38 287 0.0 1.7 0.00 0.00 0.00 82 1014.1
20260507040840 37 160 0.9 1.7 0.00 0.00 0.00 82 1014.0
20260507040328 37 160 0.9 1.7 0.00 0.00 0.00 80 1013.9
20260507035836 37 160 0.0 0.0 0.00 0.00 0.00 82 1013.9
20260507035324 37 160 0.0 0.0 0.00 0.00 0.00 80 1013.8
20260507034824 36 160 0.0 0.0 0.00 0.00 0.00 80 1013.7
20260507034346 36 160 0.0 0.0 0.00 0.00 0.00 80 1013.8
20260507033826 36 160 0.0 0.0 0.00 0.00 0.00 81 1013.7
20260507033325 36 160 0.0 0.0 0.00 0.00 0.00 81 1013.8
20260507032826 36 160 0.0 0.0 0.00 0.00 0.00 82 1013.7
20260507032335 36 160 0.0 0.0 0.00 0.00 0.00 80 1013.8
20260507031825 36 160 0.0 0.0 0.00 0.00 0.00 80 1013.8
20260507031346 36 160 0.0 0.0 0.00 0.00 0.00 78 1013.7
20260507030826 37 160 0.0 0.0 0.00 0.00 0.00 78 1013.8
20260507030335 37 160 0.0 0.0 0.00 0.00 0.00 77 1013.8
20260507025824 37 160 0.0 0.0 0.00 0.00 0.00 78 1013.8
20260507025326 37 160 0.0 0.0 0.00 0.00 0.00 77 1013.8
20260507024827 37 160 0.0 0.0 0.00 0.00 0.00 76 1013.8
20260507024328 38 160 0.0 0.0 0.00 0.00 0.00 75 1013.8
20260507023849 38 160 0.0 0.0 0.00 0.00 0.00 74 1013.8